SCP
0 0 0 0 0 0 0 0 0 0 0 0 0 0 0 0 0 1 1 1 1 1 2 2 2 2 2 2 2 2 2 1 1 1 1 1 1 1 1 1 1 1 1 1
0 0 0 0 0 0 0 0 0 0 0 0 0 0 0 0 1 1 1 1 1 1 1 1 1 2 2 2 2 2 2 2 1 1 1 1 1 1 1 1 1 1 1 1
0 0 0 0 0 0 0 0 0 0 0 0 0 0 0 1 1 1 1 1 1 1 1 1 1 1 1 1 1 2 2 2 2 1 1 1 1 1 1 1 1 1 1 1
0 0 0 0 0 0 0 0 0 0 0 0 0 0 0 1 1 1 1 1 1 1 1 1 1 1 1 1 1 1 2 2 2 2 1 1 1 1 1 1 1 1 1 1
0 0 0 0 0 0 0 0 0 0 0 0 0 0 1 1 1 1 1 1 1 1 1 1 1 1 1 1 1 1 1 2 2 2 1 1 1 1 1 1 1 1 1 1
0 0 0 0 0 0 0 0 0 0 0 0 0 1 1 1 1 1 1 1 1 1 1 1 2 2 2 1 1 1 1 1 2 2 2 1 1 1 1 1 1 1 1 1
0 0 0 0 0 0 0 0 0 0 1 1 1 1 1 1 1 1 1 1 1 1 1 1 2 2 2 2 2 1 1 1 1 1 1 1 1 1 2 1 1 1 1 1
0 0 0 0 0 0 1 1 1 1 1 1 1 1 1 1 1 1 1 1 1 1 1 1 2 2 2 2 2 2 2 2 2 1 1 1 1 1 2 1 1 1 1 1
0 0 0 0 0 0 1 1 1 1 1 1 1 1 1 1 1 1 1 1 1 1 1 1 1 2 2 2 2 2 2 2 2 2 1 1 1 1 1 1 1 1 1 1
0 0 0 0 0 0 0 0 0 0 0 0 1 1 1 1 1 1 1 1 1 1 1 1 2 2 2 2 2 2 2 2 2 2 1 1 1 1 1 1 1 1 1 1
0 0 0 0 0 0 0 0 0 0 0 0 1 1 1 1 1 1 1 1 1 1 1 1 2 2 2 2 2 2 2 2 2 1 1 1 1 1 1 1 1 1 1 1
0 0 0 0 0 0 0 0 0 0 1 1 1 1 1 1 1 1 1 1 1 1 1 1 1 1 2 2 2 2 2 2 1 1 1 1 1 1 1 1 1 1 1 1
0 0 0 0 0 0 0 0 0 0 1 1 1 1 1 1 1 1 1 1 1 1 1 1 1 1 1 1 1 1 1 1 1 1 1 1 0 0 1 0 0 0 0 0
0 0 0 0 0 0 0 0 0 0 0 0 1 1 1 1 1 1 1 1 1 1 1 1 1 1 1 1 1 1 1 1 1 1 0 0 0 0 0 0 0 0 0 0
0 0 0 0 0 0 0 0 0 0 0 0 0 0 1 1 1 1 1 1 1 1 1 1 1 1 1 1 1 1 0 0 0 0 0 0 0 0 0 0 0 0 0 0
0 0 0 0 0 0 0 0 0 0 0 0 0 0 0 0 1 1 1 1 1 1 1 1 1 1 1 1 1 1 0 0 0 0 0 0 0 0 0 0 0 0 0 0
0 0 0 0 0 0 0 0 0 0 0 0 0 0 0 0 0 1 1 1 1 1 1 1 1 1 1 1 0 0 0 0 0 0 0 0 0 0 0 0 0 0 0 0
0 0 0 0 0 0 0 0 0 0 0 0 0 0 0 0 0 0 0 1 1 1 1 1 1 1 1 0 0 0 0 0 0 0 0 0 0 0 0 0 0 0 0 0
0 0 0 0 0 0 0 0 0 0 0 0 0 0 0 0 0 0 0 1 1 1 1 1 1 0 0 0 0 0 0 0 0 0 0 0 0 0 0 0 0 0 0 0
0 0 0 0 0 0 0 0 0 0 0 0 0 0 0 0 0 0 0 1 1 1 1 0 0 0 0 0 0 0 0 0 0 0 0 0 0 0 0 0 0 0 0 0
0 0 0 0 0 0 0 0 0 0 0 0 0 0 0 0 0 0 0 0 1 1 1 0 0 0 0 0 0 0 0 0 0 0 0 0 0 0 0 0 0 0 0 0
0 0 0 0 0 0 0 0 0 0 0 0 0 0 0 0 0 0 0 0 1 0 0 0 0 0 0 0 0 0 0 0 0 0 0 0 0 0 0 0 0 0 0 0
0 0 0 0 0 0 0 0 0 0 0 0 0 0 0 0 0 0 0 0 0 0 0 0 0 0 0 0 0 0 0 0 0 0 0 0 0 0 0 0 0 0 0 0
0 0 0 0 0 0 0 0 0 0 0 0 0 0 0 0 0 0 0 0 0 0 0 0 0 0 0 0 0 0 0 0 0 0 0 0 0 0 0 0 0 0 0 0
0 0 0 0 0 0 0 0 0 0 0 0 0 0 0 0 0 0 0 0 0 0 0 0 0 0 0 0 0 0 0 0 0 0 0 0 0 0 0 0 0 0 0 0
0 0 0 0 0 0 0 0 0 0 0 0 0 0 0 0 0 0 0 0 0 0 0 0 0 0 0 0 0 0 0 0 0 0 0 0 0 0 0 0 0 0 0 0
0 0 0 0 0 0 0 0 0 0 0 0 0 0 0 0 0 0 0 0 0 0 0 0 0 0 0 0 0 0 0 0 0 0 0 0 0 0 0 0 0 0 0 0
Wind_Speed
12 12 10 10 10 10 10 8 8 6 3 2 4 1 2 4 3 4 3 3 4 5 4 3 3 2 2 2 2 2 3 2 2 2 1 1 2 2 2 3 4 3 3 3
13 13 13 12 10 10 10 8 9 7 2 2 1 2 3 3 3 3 3 3 3 4 4 3 2 2 1 1 1 1 2 2 2 2 2 2 2 2 2 3 3 3 3 3
12 13 13 12 10 9 8 7 7 5 1 2 2 1 1 3 4 3 3 2 2 3 3 2 2 2 1 1 2 2 2 1 2 2 2 3 3 2 3 3 3 3 3 4
11 11 15 9 6 7 6 4 2 1 2 2 2 1 2 3 3 3 3 2 3 2 2 1 1 2 1 0 1 2 2 2 2 2 2 2 2 3 3 3 3 3 4 4
8 11 12 7 5 5 5 4 2 0 0 1 2 1 3 5 5 4 3 3 2 2 2 2 2 2 1 0 1 1 2 1 1 1 2 2 3 3 3 3 4 4 4 4
9 11 11 5 4 6 6 3 2 1 1 1 0 1 2 5 5 5 5 4 3 2 2 3 2 1 0 1 1 1 2 1 1 2 2 3 3 3 4 4 4 4 4 4
11 11 7 3 4 5 6 0 3 3 3 2 2 3 5 6 5 5 5 4 4 3 2 2 2 1 0 1 1 1 1 1 2 2 3 3 3 3 3 4 4 4 4 4
9 10 5 3 2 2 2 4 4 4 4 4 4 5 5 5 5 4 4 4 3 3 2 2 1 0 1 1 2 2 1 1 2 2 3 3 2 3 4 4 5 4 4 4
3 2 2 2 3 3 3 3 3 2 3 3 2 3 4 4 4 4 4 3 2 2 2 2 1 1 1 2 2 2 2 2 2 3 3 2 3 3 3 3 4 3 3 4
2 2 1 1 3 4 3 2 1 1 1 1 2 2 3 3 3 3 3 2 2 2 2 2 1 2 2 2 2 2 2 2 2 3 3 3 3 3 3 3 3 3 3 3
4 3 2 2 3 3 2 1 2 2 2 2 2 3 3 3 2 2 2 2 2 1 1 1 1 2 2 2 2 2 3 3 3 4 3 3 3 3 3 2 3 4 3 3
3 2 2 1 2 2 2 2 3 3 3 2 2 2 2 2 2 1 1 1 1 1 1 1 2 1 1 1 1 2 3 3 3 3 3 3 2 3 3 3 4 5 6 5
4 5 3 1 1 1 2 2 3 3 3 2 2 2 2 1 1 1 1 1 1 1 1 2 2 2 1 1 1 2 3 3 4 3 3 3 3 3 3 3 4 5 6 6
3 3 3 2 2 2 2 2 2 2 2 2 2 1 1 0 1 1 1 1 2 1 2 1 2 2 2 2 2 3 4 3 4 3 3 4 3 4 4 3 3 3 4 6
4 5 3 1 1 2 2 1 1 2 1 1 1 1 0 1 1 2 2 2 2 1 1 1 2 2 2 3 3 3 4 3 3 3 3 4 3 4 4 4 4 3 2 2
4 5 3 2 2 2 1 1 1 2 2 1 1 1 1 1 1 2 2 2 2 1 1 2 2 2 2 3 3 3 3 4 4 4 4 4 4 4 4 3 3 3 3 2
4 4 4 3 2 2 2 2 1 1 1 2 1 1 1 2 1 1 2 2 1 1 1 1 1 2 2 2 3 4 3 3 4 4 4 3 3 4 3 3 4 3 3 2
4 5 4 3 2 2 3 3 2 1 1 2 1 1 1 1 2 2 2 2 2 1 1 1 1 2 2 2 2 3 3 3 3 3 3 3 3 4 4 3 3 4 3 3
2 3 2 2 3 3 4 3 2 2 3 3 2 2 2 2 2 2 3 3 2 2 2 1 1 2 3 2 3 3 4 4 3 3 3 3 4 3 3 3 3 3 3 3
1 3 3 3 3 4 4 3 3 3 2 2 2 2 2 2 2 3 2 2 2 2 1 1 2 3 3 2 4 5 5 5 4 4 3 3 3 3 3 4 3 3 3 3
1 2 2 3 3 3 3 2 2 2 2 2 2 3 3 3 3 3 3 3 1 2 3 2 3 2 2 2 5 5 4 4 4 4 3 3 3 3 3 3 3 3 3 3
2 2 2 3 2 2 2 2 2 2 2 2 2 3 3 4 3 3 3 3 2 2 3 2 1 1 2 4 4 5 5 4 4 3 3 3 3 3 3 3 3 3 3 2
2 2 2 3 3 3 2 2 2 1 1 2 2 3 3 3 3 4 3 2 0 1 3 2 2 2 3 4 5 5 5 4 4 3 3 3 3 2 2 3 2 2 2 2
2 2 2 2 3 2 2 3 3 1 2 2 2 2 3 3 2 3 2 1 1 2 4 1 4 5 5 5 5 4 4 3 3 2 2 2 2 2 2 2 2 1 2 2
1 1 1 2 2 2 2 2 3 2 3 3 2 2 2 2 2 2 2 1 1 2 2 2 5 6 5 4 4 4 3 2 2 2 2 2 2 2 2 2 2 2 2 2
1 1 1 2 3 3 3 2 2 2 2 2 2 2 2 1 1 1 1 1 1 1 2 1 2 3 2 2 2 3 3 2 2 2 2 2 2 2 2 2 2 2 2 2
2 1 1 2 2 2 2 2 2 2 2 3 3 2 2 2 2 2 2 2 1 1 1 1 1 2 2 2 2 2 3 3 2 2 2 2 2 2 2 2 2 2 2 2
Wind_Direction
274 279 277 272 265 263 260 260 262 270 237 175 150 159 118 122 125 113 93 99 110 111 105 105 96 92 96 106 118 144 158 172 185 196 185 212 218 226 233 245 249 234 230 232
269 271 274 272 263 264 269 260 256 262 255 136 138 124 128 124 133 132 128 118 122 123 124 123 119 108 103 123 126 146 174 186 184 194 195 213 227 225 228 242 254 248 237 233
270 271 273 263 263 256 253 261 266 264 259 121 128 128 133 150 168 141 116 109 106 118 125 142 151 133 137 142 160 180 196 213 195 205 212 212 227 229 230 238 244 252 247 237
263 266 263 272 290 282 269 265 266 216 185 181 131 139 74 74 88 101 96 82 67 89 104 113 147 127 130 207 172 194 207 211 218 216 226 227 228 232 237 241 243 247 249 244
267 265 266 265 284 285 270 259 278 208 114 219 124 141 87 72 72 63 62 81 80 67 79 73 55 88 110 262 217 223 231 226 228 230 235 230 231 237 240 242 248 243 245 245
256 263 265 280 314 313 281 233 358 4 39 349 217 220 73 72 72 62 51 52 59 61 61 64 52 83 194 260 263 260 269 265 244 219 233 241 237 239 242 240 247 249 245 243
248 257 265 339 337 294 265 2 36 41 44 33 30 69 91 82 74 68 60 56 50 48 53 58 50 46 327 289 291 288 278 259 246 222 235 232 228 244 247 247 248 248 251 249
250 254 253 357 337 336 43 43 38 40 35 50 65 77 81 76 77 70 57 51 50 44 36 39 37 10 280 306 320 316 287 261 258 251 258 247 234 249 253 254 253 243 243 251
279 271 39 35 74 66 63 40 19 26 42 50 84 91 78 80 73 63 51 36 24 30 37 34 16 351 317 340 328 309 287 267 262 261 258 250 240 249 250 249 254 256 244 249
267 235 284 67 80 62 48 33 354 331 50 59 73 83 92 82 75 67 49 27 19 20 17 14 10 348 340 339 316 302 293 288 273 264 259 257 252 249 248 253 256 260 259 257
264 276 315 27 34 26 35 343 331 358 30 38 54 84 89 86 81 68 40 23 15 12 15 359 345 332 322 316 312 300 292 288 283 276 271 265 265 275 265 266 253 247 266 275
302 341 311 38 14 342 318 328 328 358 33 40 43 66 89 95 93 80 36 13 357 344 345 327 311 313 315 309 313 307 296 292 284 284 285 279 277 294 306 268 244 232 235 245
309 318 316 359 3 336 315 343 7 26 16 17 48 53 60 64 64 35 332 300 279 272 283 293 302 306 320 314 300 286 281 280 280 282 283 283 283 276 276 276 260 255 251 244
332 313 299 312 324 321 323 6 30 26 38 39 65 72 77 36 346 316 300 294 286 275 262 270 287 300 306 291 276 273 276 272 277 279 276 274 276 279 277 273 272 267 253 237
271 268 264 286 315 313 326 12 2 9 357 39 48 64 55 339 334 333 335 321 305 275 288 300 299 305 314 295 284 278 282 283 286 291 287 285 281 279 283 282 275 268 259 241
262 264 257 262 275 289 310 335 353 347 343 359 13 357 1 342 330 329 326 326 315 311 336 326 311 306 301 292 288 274 271 268 271 283 286 284 283 285 287 292 289 285 281 277
270 269 262 263 268 292 307 312 339 20 348 318 312 322 314 306 308 311 317 326 314 298 308 307 306 301 289 292 288 286 287 276 263 274 281 291 295 294 296 295 297 298 298 300
268 270 276 281 288 287 289 296 310 336 298 282 288 288 286 284 290 304 305 310 311 322 310 284 303 304 301 306 295 295 296 286 279 280 284 293 297 293 293 292 297 299 300 303
267 282 282 298 304 301 295 295 301 294 291 289 292 292 298 300 302 296 294 295 291 279 283 305 317 284 292 309 307 287 280 276 275 277 282 284 286 292 296 301 304 305 306 307
232 260 269 270 276 278 276 280 287 286 284 290 295 298 300 299 301 299 300 289 283 292 279 272 264 277 285 303 296 284 285 289 286 279 280 281 279 285 292 297 301 307 311 312
278 279 292 279 274 276 279 283 294 301 308 297 289 279 274 272 266 267 277 275 253 261 268 244 242 272 296 306 279 281 288 293 292 293 285 279 282 285 288 293 298 300 298 299
316 303 305 309 302 298 311 315 307 304 308 292 278 279 278 274 266 253 246 257 235 221 254 251 228 300 306 298 284 286 291 292 289 290 291 288 290 292 294 296 292 294 300 304
319 321 320 316 307 305 326 331 322 317 303 299 295 286 284 288 287 282 276 272 234 213 262 265 200 205 256 270 273 277 284 286 289 287 289 291 290 295 295 297 299 305 316 320
295 298 297 296 304 322 326 314 305 296 280 271 266 260 265 271 271 278 313 106 162 232 276 247 206 224 245 262 267 269 274 283 290 297 302 302 305 303 299 304 314 312 302 305
289 299 308 297 295 302 306 302 299 299 288 279 271 256 253 263 287 310 327 339 146 242 283 222 226 233 246 272 286 289 292 302 306 304 298 301 300 301 304 298 290 293 298 303
282 287 299 295 303 308 299 298 304 302 300 304 306 309 318 335 326 323 331 318 329 290 314 301 243 227 254 283 295 303 306 295 280 281 296 310 310 307 302 293 289 289 292 294
216 218 226 266 270 268 279 295 294 299 319 333 338 337 335 338 345 347 342 338 327 326 344 7 11 349 339 319 312 319 315 319 331 337 344 353 343 328 323 320 310 302 294 288